Regional Weather Roundup
Issued by NWS

Home | Current Version | Previous Version | Graphics & Text | Print | Product List | Glossary On
Versions: 1 2 3 4 5 6 7 8 9 10 11 12 13 14 15 16 17 18 19 20 21 22 23 24 25 26 27 28 29 30 31 32 33 34 35 36 37 38 39 40 41 42 43 44 45 46 47 48 49 50
000
ASUS45 KSLC 271910
RWRUT

UTAH REGIONAL WEATHER ROUNDUP
NATIONAL WEATHER SERVICE SALT LAKE CITY UT
100 PM MDT MON MAR 27 2017

UTZ001>011-023>025-272000-

NORTHERN UTAH

CITY           SKY/WX    TMP DP  RH WIND       PRES   REMARKS
BRIGHAM CITY     N/A     43  38  82 N7        29.89S
HILL AFB       CLOUDY    42  40  92 E5        29.87F
LOGAN          RAIN      40  37  89 S7        29.91R FOG
OGDEN          LGT RAIN  42  41  96 E6        29.87F
SALT LAKE CITY RAIN      43  39  86 NE8       29.88F
TOOELE VALLEY  CLOUDY    46  41  81 N7        29.88
WENDOVER       CLOUDY    49  35  58 NW20G26   29.89S
HEBER CITY     MIX PCPN  39  36  87 W5        29.85F

$$

UTZ011>015-024>027-272000-

CENTRAL/NORTHEAST UTAH

CITY           SKY/WX    TMP DP  RH WIND       PRES   REMARKS
PROVO AIRPORT  RAIN      43  37  81 NW12      29.88S
MOAB/CANYONLAN CLOUDY    56  30  37 W14       29.83F
DELTA          CLOUDY    41  37  87 NW10      29.89S
PRICE          RAIN      38  36  92 SE6       29.89F WCI  33
RICHFIELD      CLOUDY    46  39  76 CALM      29.86F
ROOSEVELT      CLOUDY    46  34  61 CALM      29.91S
VERNAL         CLOUDY    47  35  63 VRB5      29.87F

$$

UTZ013>016-019>022-027-272000-

SOUTHERN UTAH

CITY           SKY/WX    TMP DP  RH WIND       PRES   REMARKS
BRYCE CANYON   CLOUDY    43  30  60 SE14      29.88F
CEDAR CITY     PTSUNNY   48  38  68 VRB6      29.84F
MILFORD        LGT RAIN  44  39  82 S9        29.86F
ST GEORGE      CLOUDY    68  34  28 W17       29.79F
HANKSVILLE     CLOUDY    55  32  41 N3        29.85F
KANAB          PTSUNNY   61  32  33 S16       29.85F
BLANDING       PTSUNNY   56  26  30 S8G18     29.97F

$$

REGIONAL REPORTS     COLORADO/ARIZONA

CITY           SKY/WX    TMP DP  RH WIND       PRES   REMARKS
CRAIG, CO      CLOUDY    52  25  35 VRB6      29.86F
GRAND JUNCTION CLOUDY    59  27  29 SW8       29.83F
RIFLE, CO      CLOUDY    57  24  28 W10       29.84F
MONTROSE, CO   PTSUNNY   58  22  24 CALM      29.88F
CORTEZ, CO     CLOUDY    59  27  29 SW16      29.90F
COLORADO CITY    N/A     61  32  33 SW16      29.86F
PAGE, AZ       SUNNY     64  30  27 NE9       29.81F
GRAND CANYON   PTSUNNY   54  31  41 SW25G38   29.92F
KINGMAN, AZ    SUNNY     65  15  14 SW20G30   29.88S
FLAGSTAFF, AZ  MOSUNNY   50  29  44 SW14G33   29.96F

$$

REGIONAL REPORTS    NEVADA/IDAHO/WYOMING

CITY           SKY/WX    TMP DP  RH WIND       PRES   REMARKS
LAS VEGAS, NV  MOSUNNY   69  29  22 N20G30    29.83F
ELY, NY        CLOUDY    41  31  67 NW14      29.93F
ELKO, NV       CLOUDY    44  29  55 NW16G22   29.98F
POCATELLO, ID  CLOUDY    41  38  89 W12       29.93S
BURLEY, ID     CLOUDY    45  35  68 W16G25    29.93S
FORT BRIDGER,  CLOUDY    44  32  62 MISG      29.90S
EVANSTON, WY   CLOUDY    43  28  55 E6        29.85F
ROCK SPRINGS,  CLOUDY    49  23  36 CALM      29.86F
KEMMERER, WY     N/A     41  28  60 E5        29.88F

$$



USA.gov is the U.S. government's official web portal to all federal, state and local government web resources and services.